Wind_Speed
18 18 18 17 17 17 17 17 17 17 18 19 19 19 19 19 19 20 19 19 20 21 22 23 23 23 23 23 23 23 23 22 22 22 23 23 23 22 22 22 23 22 22
20 20 20 19 19 19 19 19 19 19 20 20 20 20 21 21 22 22 21 22 23 24 24 25 25 25 25 24 25 24 24 24 24 23 24 24 25 24 24 24 24 24 24
22 22 21 21 21 21 21 21 21 21 22 21 21 22 23 23 23 24 25 25 25 26 26 27 27 27 26 26 26 26 25 25 25 25 26 26 27 26 25 25 25 26 26
24 24 23 23 23 23 23 23 23 23 23 23 24 24 25 25 25 26 27 27 27 28 28 29 29 28 28 29 27 27 27 28 28 28 28 28 29 28 28 27 28 28 28
27 27 26 26 26 26 25 25 25 26 26 26 26 26 27 28 28 28 29 29 30 30 30 31 31 30 30 29 29 29 30 31 30 30 30 30 30 30 30 30 30 30 30
29 29 29 28 28 28 28 27 27 28 28 28 28 28 29 30 30 31 32 32 32 32 32 33 33 33 32 32 32 32 32 32 32 33 33 33 32 33 33 33 32 32 32
32 32 31 30 30 29 29 30 30 30 29 30 30 30 31 31 31 32 33 33 33 33 34 35 35 35 34 34 34 35 35 35 35 35 34 34 35 35 35 35 35 35 35
34 34 34 33 32 32 32 31 31 32 31 31 31 31 31 31 32 32 33 34 35 36 36 36 37 37 36 35 36 36 37 37 36 37 36 36 37 37 37 37 37 37 37
36 36 35 34 34 34 33 33 34 33 33 33 33 33 33 33 34 34 35 35 35 36 37 37 37 37 37 36 37 37 38 38 37 37 37 38 39 39 39 39 39 40 40
37 36 35 34 35 35 34 35 35 35 35 35 35 36 36 35 35 35 35 36 36 36 36 36 36 36 36 37 37 36 37 37 38 39 39 39 40 40 40 40 41 41 41
37 36 36 36 36 36 36 36 36 37 37 37 37 37 37 36 35 35 36 37 37 36 36 35 36 36 36 36 36 37 37 38 39 39 39 39 40 40 40 41 41 41 42
38 38 38 38 38 38 38 38 38 38 38 38 38 38 37 36 36 37 37 37 37 37 37 36 36 36 37 37 37 38 38 39 39 39 39 39 39 39 40 42 42 42 42
39 39 40 40 40 40 40 39 39 39 40 40 39 39 39 38 38 38 39 38 38 38 37 36 36 36 37 37 38 39 39 40 40 40 40 40 40 40 40 41 40 40 41
40 41 41 41 41 41 41 41 41 41 41 41 40 40 40 40 39 39 38 37 37 37 37 37 37 38 38 38 39 39 39 40 40 40 40 40 40 39 39 39 40 40 39
39 40 41 41 42 41 41 41 41 41 41 41 40 39 39 39 38 38 37 37 38 37 37 38 39 39 39 39 39 39 39 38 38 39 39 39 39 39 38 38 39 39 39
38 39 39 38 39 40 40 40 39 39 40 40 39 40 40 39 39 39 38 39 39 38 38 38 38 38 38 38 38 38 38 39 39 39 39 40 40 39 39 38 38 38 38
36 36 37 37 38 38 38 38 38 38 38 39 39 38 37 37 38 38 38 38 38 38 38 38 38 38 37 37 37 38 38 38 39 39 39 39 38 38 38 38 38 38 38
34 35 36 36 37 38 38 37 37 37 37 37 37 36 37 37 37 37 37 37 36 36 36 36 36 37 37 38 38 38 38 39 39 38 38 38 38 38 38 38 38 38 37
33 34 34 34 36 36 37 36 36 36 35 35 36 36 36 36 36 36 36 36 36 35 36 36 36 37 37 37 38 39 38 38 37 37 37 37 38 37 37 36 36 36 36
33 33 33 33 34 34 35 35 35 34 35 35 35 35 36 35 35 35 36 36 35 34 34 35 35 35 35 36 36 36 36 36 36 36 36 36 36 35 34 34 34 34 34
31 30 30 30 31 31 31 32 33 34 34 34 33 33 34 34 34 34 34 34 34 33 33 34 34 34 34 34 34 34 34 35 35 35 34 33 34 34 33 33 33 33 32
25 25 27 28 28 28 29 30 31 31 30 30 31 32 32 33 33 33 33 33 33 33 33 33 34 33 33 33 34 34 33 33 32 32 32 33 33 33 33 33 32 32 31
23 24 25 25 26 26 27 27 28 29 29 30 31 31 32 32 32 32 32 32 32 32 32 32 32 32 32 32 32 32 32 31 32 32 32 33 33 33 33 33 33 32 31
22 23 23 23 25 25 26 26 27 28 29 29 29 30 30 31 31 31 31 31 31 31 32 31 31 31 31 30 30 30 30 31 31 31 32 32 32 33 32 32 32 31 31
21 22 23 23 24 25 25 25 25 26 27 28 28 28 28 28 28 28 29 30 30 31 30 30 30 29 29 29 29 29 29 30 30 31 31 32 32 32 32 32 31 30 30
20 21 22 23 24 25 25 25 25 25 26 26 25 25 25 26 27 28 28 28 29 29 30 30 30 30 30 29 28 29 29 29 30 31 31 31 30 30 30 29 28 28 28
Wind_Direction
281 281 281 282 283 283 285 284 282 281 281 278 277 280 278 276 277 278 279 278 277 279 281 282 284 286 287 285 285 283 283 284 285 285 285 284 285 287 288 288 287 288 287
278 279 278 280 282 283 283 283 282 281 282 283 281 281 279 277 277 277 279 281 282 282 282 283 285 285 286 286 286 283 282 284 284 283 285 285 286 286 287 288 287 287 287
277 276 276 277 279 280 280 280 280 280 280 281 283 281 278 278 278 278 279 282 283 282 283 284 286 285 283 283 285 284 283 282 283 283 284 285 286 285 286 286 286 286 286
276 276 276 276 277 278 277 279 281 280 279 279 280 282 281 279 280 279 280 282 282 283 284 284 285 284 283 284 284 283 283 282 283 283 284 284 284 284 283 283 284 285 285
274 273 273 274 275 276 277 279 280 281 280 280 280 281 282 281 281 281 281 282 282 283 283 282 283 286 287 287 285 284 283 282 282 283 284 284 284 283 284 283 283 283 282
271 272 272 273 274 274 275 276 277 278 280 281 281 282 283 282 282 281 282 281 281 281 281 282 284 286 288 287 286 284 283 282 281 282 282 283 283 283 284 283 284 284 283
269 270 272 271 271 272 273 275 277 279 280 281 282 282 283 284 283 283 283 282 282 282 283 284 284 284 285 286 286 284 284 282 281 282 283 283 282 282 283 283 283 282 282
268 269 271 272 272 271 272 275 276 277 278 280 279 280 281 281 282 283 283 283 282 283 283 284 284 284 284 285 284 283 283 284 282 281 281 282 282 282 282 283 282 282 281
267 267 269 272 271 270 272 274 275 276 277 279 281 281 279 280 282 283 283 284 284 285 284 283 283 283 285 284 284 283 283 285 285 283 282 282 282 281 281 281 282 281 282
266 267 268 270 270 270 271 272 274 275 277 278 279 281 280 282 283 283 283 284 284 285 284 283 283 283 282 283 283 283 283 284 284 284 283 283 283 282 280 279 281 282 281
267 268 268 269 269 269 269 271 272 274 276 278 280 281 282 283 284 284 285 285 285 284 283 283 284 283 283 283 283 284 284 284 283 283 283 283 284 282 280 280 280 280 280
267 268 268 268 268 268 268 269 271 273 275 277 278 280 281 282 283 285 285 285 284 283 283 283 284 284 284 285 285 285 285 284 284 283 283 283 284 282 281 280 278 278 279
266 267 267 266 266 267 268 269 271 272 274 276 277 279 280 281 282 283 283 284 284 283 283 284 285 285 285 284 284 285 285 285 285 284 283 284 285 283 281 280 278 278 279
265 265 267 267 266 267 268 269 270 272 274 276 277 278 280 281 281 281 281 281 282 282 283 283 284 285 285 285 285 285 285 285 285 286 286 285 285 285 283 281 281 282 280
265 265 266 268 268 268 269 270 271 271 273 275 276 277 279 280 280 280 280 280 281 282 283 283 284 284 285 285 285 285 286 286 287 287 287 287 286 285 284 284 283 282 281
265 266 266 268 268 270 271 272 272 272 272 273 275 276 277 278 279 280 280 281 280 281 282 284 284 285 285 285 285 285 285 285 286 287 287 287 286 285 284 284 284 284 282
266 266 267 268 269 270 271 272 273 272 272 272 273 275 275 277 279 279 279 280 281 281 282 283 283 283 284 285 285 285 285 285 285 286 286 285 285 285 286 286 286 284 283
266 266 267 269 270 272 273 273 272 273 272 272 272 274 276 277 278 279 278 278 280 282 283 284 284 284 285 285 285 284 284 284 284 284 284 285 285 286 287 286 284 283 283
266 266 266 268 270 272 273 274 274 273 272 272 274 274 275 277 278 278 279 280 281 282 283 284 285 285 286 286 286 285 284 283 283 284 285 287 287 287 287 286 285 285 284
265 266 268 269 271 273 273 273 273 273 273 274 275 275 275 276 278 279 280 280 282 282 284 286 287 286 286 287 287 286 285 285 285 286 288 289 289 289 287 286 286 285 285
266 267 269 271 273 274 273 272 272 274 275 275 276 277 279 279 279 281 283 283 283 285 286 287 288 286 286 287 287 287 287 287 287 288 288 289 290 291 290 288 287 286 285
269 269 271 273 273 274 275 273 274 276 278 279 279 278 279 281 283 283 284 285 285 287 288 287 287 287 288 289 289 288 287 288 289 290 290 290 291 291 291 290 289 287 285
270 274 275 275 275 276 277 279 279 280 282 282 280 279 280 282 283 284 284 285 286 287 289 289 289 288 288 289 290 289 288 289 290 290 290 290 291 291 291 290 289 286 284
273 275 275 275 277 279 280 281 281 282 283 283 283 282 283 283 284 284 285 287 288 290 292 293 293 292 290 289 289 289 289 289 290 291 291 292 292 292 291 290 288 286 285
275 276 278 279 279 280 283 285 287 286 285 286 286 285 284 284 286 287 287 287 288 290 291 292 293 293 291 290 290 290 291 291 292 292 292 291 291 291 291 289 288 286 284
280 282 283 283 284 285 287 288 288 286 286 286 287 287 287 288 288 289 290 290 290 291 291 291 292 292 292 293 293 293 293 293 293 293 292 291 289 289 290 288 286 285 284
Height
5874 5874 5874 5874 5874 5874 5874 5874 5873 5873 5873 5873 5873 5873 5872 5872 5872 5872 5872 5872 5871 5871 5871 5871 5870 5869 5869 5868 5867 5867 5866 5866 5866 5866 5865 5864 5863 5863 5862 5861 5861 5860 5859
5870 5870 5870 5870 5870 5870 5870 5869 5869 5869 5868 5868 5868 5868 5868 5867 5867 5867 5866 5866 5866 5866 5865 5865 5864 5863 5863 5862 5861 5860 5860 5860 5860 5860 5859 5858 5857 5857 5856 5855 5854 5854 5853
5864 5864 5864 5865 5865 5865 5864 5864 5864 5863 5863 5863 5863 5862 5862 5862 5862 5861 5861 5861 5860 5860 5859 5859 5858 5857 5856 5855 5855 5854 5853 5853 5853 5853 5852 5851 5850 5850 5849 5848 5848 5847 5846
5859 5858 5859 5859 5859 5859 5858 5858 5858 5857 5857 5857 5857 5856 5856 5856 5855 5855 5855 5854 5854 5853 5853 5852 5851 5850 5849 5848 5848 5847 5846 5846 5845 5845 5844 5843 5843 5842 5841 5841 5840 5839 5838
5852 5852 5853 5852 5852 5852 5852 5851 5851 5851 5850 5850 5850 5850 5849 5849 5849 5848 5848 5847 5847 5846 5845 5845 5843 5842 5842 5841 5840 5840 5839 5838 5837 5836 5836 5835 5834 5833 5833 5832 5831 5830 5829
5845 5845 5845 5845 5845 5845 5845 5844 5844 5844 5844 5843 5843 5843 5842 5842 5841 5841 5840 5839 5838 5838 5837 5836 5835 5834 5834 5833 5832 5831 5830 5829 5828 5828 5827 5826 5825 5824 5823 5822 5821 5821 5820
5836 5837 5837 5837 5837 5837 5837 5837 5836 5836 5836 5836 5836 5835 5834 5834 5833 5832 5831 5830 5830 5829 5828 5827 5826 5826 5825 5824 5823 5822 5821 5820 5819 5818 5817 5817 5816 5815 5814 5813 5812 5811 5810
5828 5828 5828 5829 5829 5829 5829 5829 5829 5828 5828 5828 5827 5827 5826 5825 5824 5823 5823 5822 5821 5820 5819 5818 5817 5816 5815 5814 5813 5812 5811 5810 5808 5807 5807 5807 5805 5804 5803 5802 5801 5800 5799
5818 5819 5819 5820 5820 5820 5820 5821 5820 5820 5819 5819 5818 5818 5817 5816 5816 5815 5814 5812 5812 5811 5809 5808 5807 5807 5806 5804 5803 5802 5801 5799 5798 5797 5796 5795 5794 5793 5792 5791 5790 5789 5788
5808 5809 5809 5810 5811 5811 5811 5811 5811 5811 5810 5810 5809 5809 5808 5807 5807 5806 5804 5803 5802 5801 5800 5799 5798 5797 5796 5794 5793 5792 5790 5789 5788 5786 5785 5784 5783 5782 5780 5779 5778 5777 5776
5799 5799 5799 5800 5801 5801 5801 5801 5801 5801 5801 5800 5799 5799 5798 5798 5797 5796 5795 5793 5792 5791 5790 5790 5788 5787 5785 5784 5783 5781 5780 5779 5777 5776 5774 5773 5771 5770 5768 5767 5766 5764 5763
5788 5789 5789 5789 5789 5790 5791 5791 5791 5791 5791 5790 5789 5789 5788 5788 5787 5786 5785 5784 5783 5782 5781 5779 5778 5777 5776 5774 5772 5770 5769 5767 5766 5764 5763 5761 5760 5758 5756 5755 5753 5752 5750
5777 5778 5778 5778 5778 5779 5779 5780 5780 5780 5780 5780 5779 5779 5779 5778 5777 5776 5775 5774 5773 5772 5770 5769 5768 5767 5765 5764 5762 5759 5758 5756 5754 5753 5751 5749 5748 5746 5744 5742 5741 5740 5739
5765 5766 5766 5766 5767 5767 5768 5768 5769 5769 5769 5769 5768 5768 5768 5767 5766 5766 5764 5763 5762 5761 5760 5759 5757 5756 5754 5753 5751 5749 5746 5744 5742 5741 5739 5737 5735 5734 5732 5730 5729 5728 5727
5754 5754 5755 5755 5756 5755 5756 5756 5757 5757 5758 5758 5758 5757 5757 5756 5756 5755 5754 5753 5752 5751 5749 5748 5747 5745 5743 5741 5739 5737 5735 5733 5731 5729 5727 5726 5724 5722 5720 5719 5717 5716 5714
5742 5743 5744 5744 5745 5745 5745 5745 5746 5746 5746 5746 5746 5746 5746 5745 5744 5744 5743 5741 5740 5739 5738 5736 5735 5733 5732 5730 5728 5726 5724 5722 5720 5718 5716 5714 5712 5710 5708 5707 5705 5704 5702
5731 5732 5733 5734 5734 5734 5735 5735 5735 5735 5735 5735 5735 5735 5735 5734 5733 5733 5731 5730 5729 5727 5727 5725 5724 5722 5720 5719 5717 5715 5713 5711 5709 5707 5705 5703 5700 5698 5696 5695 5693 5691 5690
5721 5722 5723 5724 5724 5724 5724 5724 5724 5724 5724 5724 5724 5724 5724 5724 5723 5722 5720 5719 5717 5716 5716 5714 5713 5711 5709 5707 5706 5704 5702 5700 5697 5695 5693 5691 5689 5687 5685 5683 5681 5679 5678
5712 5713 5713 5714 5714 5714 5714 5713 5713 5714 5714 5714 5714 5714 5714 5713 5713 5712 5710 5709 5708 5706 5705 5704 5702 5700 5698 5696 5694 5692 5690 5688 5686 5684 5682 5680 5678 5675 5673 5671 5669 5667 5666
5703 5703 5704 5704 5705 5704 5704 5704 5704 5704 5704 5704 5704 5703 5703 5703 5702 5701 5700 5699 5698 5696 5695 5693 5691 5689 5687 5685 5683 5681 5679 5677 5675 5673 5671 5669 5666 5663 5661 5660 5658 5656 5655
5694 5695 5695 5695 5696 5695 5695 5695 5695 5695 5695 5694 5694 5693 5693 5693 5692 5691 5690 5689 5687 5686 5684 5682 5681 5679 5677 5675 5673 5671 5669 5667 5665 5662 5660 5658 5655 5653 5651 5649 5647 5645 5644
5687 5687 5688 5688 5688 5688 5687 5687 5686 5686 5685 5685 5684 5684 5684 5683 5682 5681 5680 5679 5677 5676 5674 5672 5670 5669 5666 5665 5662 5660 5658 5656 5654 5652 5650 5648 5645 5643 5641 5639 5637 5635 5634
5680 5681 5681 5680 5681 5680 5680 5679 5679 5678 5677 5676 5676 5675 5675 5674 5673 5671 5670 5669 5668 5666 5664 5662 5660 5658 5656 5654 5652 5650 5648 5646 5644 5642 5640 5638 5635 5633 5631 5629 5627 5625 5624
5674 5674 5674 5673 5673 5673 5673 5672 5671 5670 5669 5668 5667 5667 5666 5665 5664 5662 5661 5660 5659 5657 5655 5652 5650 5648 5647 5645 5643 5641 5639 5636 5634 5633 5630 5628 5625 5623 5621 5619 5617 5615 5615
5668 5668 5667 5667 5666 5666 5665 5664 5663 5662 5661 5660 5659 5658 5657 5656 5655 5654 5653 5651 5650 5648 5646 5644 5642 5639 5637 5635 5633 5631 5629 5627 5625 5623 5620 5618 5615 5613 5611 5609 5607 5606 5605
5662 5662 5661 5661 5660 5659 5658 5657 5656 5655 5653 5652 5651 5650 5649 5648 5647 5646 5644 5643 5641 5639 5637 5635 5633 5631 5628 5626 5625 5623 5620 5618 5616 5613 5610 5608 5605 5603 5601 5599 5598 5597 5596